User: anonymous   Login
Location: B?jaj?g
(11.7167°N, 92.6667°E)
Time: 20:15:39
(UTC+00:00)
Language:

Cosmos 1782 Rocket - Orbit

View from above orbital plane
View from above orbital plane
View from above satellite
View from above satellite

Ground track
Ground track

The orbit data is extracted from the following two-line orbital elements,

1 16987U 86074B   20332.16366623  .00000110  00000-0  10540-4 0  9995
2 16987  82.5181 211.2703 0019702  74.1011  90.4550 14.83086950845067
Epoch (UTC): 27 November 2020 03:55:40
Eccentricity: 0.0019702
inclination: 82.5181°
perigee height: 606 km
apogee height: 633 km
right ascension of ascending node: 211.2703°
argument of perigee: 74.1011°
revolutions per day: 14.83086950
mean anomaly at epoch: 90.4550°
orbit number at epoch: 84506

The dashed part of the orbit path shows where the satellite is in the earth's shadow,  

DLR